Valdosta Regional, GA

3:49 AM EDT on May 25, 2017 (GMT -0400)
Valdosta Regional

Weather History for KVLD - September, 2013

Change the Weather History Date:

Saturday, September 28, 2013

  Actual Average Record
Temperature  
Mean Temperature 74 °F 74 °F  
Max Temperature 83 °F 85 °F 93 °F (1999)
Min Temperature 64 °F 63 °F 52 °F (2006)
Degree Days  
Heating Degree Days 0 0  
Month to date heating degree days 0 0  
Since 1 July heating degree days 0 0  
Cooling Degree Days 9 9  
Month to date cooling degree days 438 352  
Year to date cooling degree days 2712 2206  
Growing Degree Days 23 (Base 50)    
Moisture  
Dew Point 59 °F    
Average Humidity 65    
Maximum Humidity 87    
Minimum Humidity 43    
Precipitation  
Precipitation 0.02 in 0.12 in 0.30 in (2015)
Month to date precipitation 1.82 4.41  
Year to date precipitation 35.98 41.44  
Sea Level Pressure  
Sea Level Pressure 30.10 in    
Wind  
Wind Speed 5 mph (NE)    
Max Wind Speed 13 mph    
Max Gust Speed 17 mph    
Visibility 10 miles    
Events Rain    
T = Trace of Precipitation, MM = Missing Value Source: NWS Daily Summary

Daily Weather History Graph

Daily Weather History Graph

Search for Another Location

Airport or City:

Trip Planner

Search our weather history database for the weather conditions in past years. The results will help you decide how hot, cold, wet, or windy it might be!

Date:

Astronomy

Sep. 28, 2013 Rise Set
Actual Time 7:25 AM EDT 7:21 PM EDT
Civil Twilight 7:00 AM EDT 7:45 PM EDT
Nautical Twilight 6:33 AM EDT 8:13 PM EDT
Astronomical Twilight 6:04 AM EDT 8:41 PM EDT
Moon 1:32 AM EDT (9/28) 3:20 PM EDT (9/28)
Length of Visible Light 12h 44m
Length of Day
11h 56m
Last Quarter, 36% of the Moon is Illuminated
Sep 28
Last Quarter
Oct 4
New
Oct 11
First Quarter
Oct 18
Full
Oct 26
Last Quarter

Hourly Weather History & Observations

Time (EDT) Temp. Heat Index Dew Point Humidity Pressure Visibility Wind Dir Wind Speed Gust Speed Precip Events Conditions
12:53 AM 64.9 °F - 60.1 °F 84% 30.09 in 10.0 mi North 4.6 mph - N/A   Clear
1:53 AM 66.0 °F - 60.1 °F 81% 30.07 in 10.0 mi NNE 4.6 mph - N/A   Clear
2:53 AM 66.0 °F - 60.1 °F 81% 30.06 in 10.0 mi NNE 4.6 mph - N/A   Clear
3:53 AM 66.0 °F - 61.0 °F 84% 30.06 in 10.0 mi NE 4.6 mph - N/A   Clear
4:53 AM 66.9 °F - 60.1 °F 79% 30.06 in 10.0 mi NE 6.9 mph - N/A   Clear
5:53 AM 66.0 °F - 59.0 °F 78% 30.07 in 10.0 mi NE 6.9 mph - N/A   Clear
6:53 AM 66.0 °F - 59.0 °F 78% 30.09 in 10.0 mi NE 6.9 mph - N/A   Mostly Cloudy
7:53 AM 66.9 °F - 57.0 °F 70% 30.11 in 10.0 mi NE 6.9 mph - N/A   Overcast
8:53 AM 66.0 °F - 57.9 °F 75% 30.13 in 8.0 mi NE 8.1 mph - 0.00 in Rain Light Rain
9:09 AM 64.4 °F - 57.2 °F 77% 30.11 in 2.5 mi NE 8.1 mph - 0.01 in Rain Rain
9:18 AM 64.4 °F - 59.0 °F 83% 30.11 in 9.0 mi NNE 8.1 mph - 0.01 in Rain Light Rain
9:53 AM 66.0 °F - 60.1 °F 81% 30.14 in 10.0 mi NE 4.6 mph - 0.01 in Rain Light Rain
10:53 AM 69.1 °F - 59.0 °F 70% 30.16 in 10.0 mi ENE 4.6 mph - N/A   Overcast
11:53 AM 72.0 °F - 55.9 °F 57% 30.16 in 10.0 mi NE 8.1 mph - 0.01 in   Overcast
12:53 PM 75.9 °F - 57.0 °F 52% 30.14 in 10.0 mi ENE 5.8 mph - N/A   Overcast
1:53 PM 78.1 °F - 57.0 °F 48% 30.12 in 10.0 mi ENE 8.1 mph - N/A   Overcast
2:53 PM 82.0 °F 82.0 °F 57.9 °F 44% 30.09 in 10.0 mi Variable 6.9 mph - N/A   Mostly Cloudy
3:53 PM 82.0 °F 82.0 °F 57.9 °F 44% 30.07 in 10.0 mi NE 8.1 mph - N/A   Overcast
4:53 PM 82.0 °F 82.1 °F 59.0 °F 45% 30.06 in 10.0 mi NE 4.6 mph - N/A   Mostly Cloudy
5:53 PM 81.0 °F 81.1 °F 57.9 °F 45% 30.06 in 10.0 mi NE 6.9 mph - N/A   Scattered Clouds
6:53 PM 78.1 °F - 57.9 °F 50% 30.08 in 10.0 mi ENE 5.8 mph - N/A   Mostly Cloudy
7:53 PM 75.9 °F - 57.9 °F 54% 30.09 in 10.0 mi Calm Calm - N/A   Mostly Cloudy
8:53 PM 75.0 °F - 59.0 °F 57% 30.09 in 10.0 mi NE 3.5 mph - N/A   Overcast
9:53 PM 73.0 °F - 57.9 °F 59% 30.11 in 10.0 mi Calm Calm - N/A   Mostly Cloudy
10:53 PM 70.0 °F - 59.0 °F 68% 30.10 in 10.0 mi Calm Calm - N/A   Clear
11:53 PM 66.9 °F - 60.1 °F 79% 30.10 in 10.0 mi Calm Calm - N/A   Clear